"Pseudo-MPEC" for CCPMK02

Created 2025 Jan 13 1:31:06 UT using Find_Orb

Click here for an explanation of pseudo-MPECs

 
 Astrometry: 
     CCPMK02*1C2025 01 07.21571404 35 06.868+08 53 17.23   ~176l 21.04GVNEOCPG96
     CCPMK02 1C2025 01 07.21998604 35 09.193+08 53 17.45   ~176l 21.15GVNEOCPG96
     CCPMK02 1C2025 01 07.22423904 35 11.454+08 53 16.98   ~176l 21.14GVNEOCPG96
     CCPMK02 1C2025 01 07.22848404 35 13.888+08 53 17.56   ~176l       VNEOCPG96
     CCPMK02 KC2025 01 07.25871404 35 29.969+08 53 15.25   ~177H 21.16GVNEOCPI52
     CCPMK02 KC2025 01 07.26041504 35 30.833+08 53 15.07   ~177H 20.96GVNEOCPI52
     CCPMK02 KC2025 01 07.26212804 35 31.762+08 53 14.10   ~177H 20.99GVNEOCPI52
     CCPMK02 KC2025 01 07.26384604 35 32.708+08 53 13.99   ~177H 21.01GVNEOCPI52

Station data:
(G96) Mt. Lemmon Survey  (N32.442729 W110.788720)  US/Arizona.  Observer E.
   J. Christensen.  + 10K CCD.
(I52) Steward Observatory, Mt. Lemmon Station  (N32.442570 W110.788920)
   US/Arizona.  Observers T. A. Pruyne, B. M. Africano, E. J. Christensen, G.
   A. Farneth, D. C. Fuls, A. R. Gibbs, A. D. Grauer, H. Gröller, J. A.
   Johnson, R. A. Kowalski, S. M. Larson, G. J. Leonard, D. Rankin, R. L.
   Seaman, F. C. Shelly, K. W. Wierzchoś. 1.0-m prime focus + CCD.

Orbital elements:  CCPMK02
   Perihelion 2024 Oct 30.99885 +/- 15.3 TT = 23:58:20 (JD 2460614.49885)
Epoch 2025 Jan  7.0 TT = JDT 2460682.5   Earth MOID: 0.0000   Ve: 0.0534
M  98.24702830 +/- 18               Me: 0.0026                   AutoNEOCP
n   1.44478473 +/- 0.0559           Peri.   35.18707 +/- 2.5
a   0.77493858 +/- 0.02             Node   285.73604 +/- 0.42
e   0.5090204 +/- 0.174             Incl.    8.29144 +/- 4.6
P   0.682/249.167d         H 30.09  G  0.15   U 10.8
q 0.38047896 +/- 0.144    Q 1.16939820 +/- 0.11           (J2000 ecliptic)
From 8 observations 2025 Jan. 7 (69.3 min); mean residual 0".43
Residuals in arcseconds: 
250107 G96  .24+  .14+    250107 G96  .93+  .10+    250107 I52  .12-  .35-    
250107 G96  .08-  .14+    250107 I52  .04+  .25+    250107 I52  .46+  .16-    
250107 G96  .99-  .46-    250107 I52  .48-  .34+    

Ephemerides (geocentric):
Date (UTC) HH   RA             Dec           delta  r     elong  mag " sig PA
---- --------  ------------   ------------  ------ ------ -----  --- --------
2025 01 13 02  04 49 24.249   +08 59 43.85  .05658 1.0260 137.5 25.5  233  72
2025 01 13 03  04 49 25.646   +08 59 46.61  .05692 1.0262 137.5 25.5  231  72
2025 01 13 04  04 49 27.035   +08 59 49.40  .05726 1.0264 137.5 25.5  229  72
2025 01 13 05  04 49 28.418   +08 59 52.21  .05761 1.0267 137.4 25.5  227  72
2025 01 13 06  04 49 29.793   +08 59 55.04  .05795 1.0269 137.4 25.6  225  72
2025 01 13 07  04 49 31.162   +08 59 57.90  .05829 1.0272 137.4 25.6  223  72
2025 01 13 08  04 49 32.524   +09 00 00.77  .05863 1.0274 137.3 25.6  222  72
2025 01 13 09  04 49 33.879   +09 00 03.66  .05898 1.0276 137.3 25.6  220  71
2025 01 13 10  04 49 35.229   +09 00 06.58  .05932 1.0279 137.2 25.6  218  71
2025 01 13 11  04 49 36.571   +09 00 09.51  .05966 1.0281 137.2 25.6  216  71
2025 01 13 12  04 49 37.908   +09 00 12.47  .06000 1.0284 137.2 25.6  214  71
2025 01 13 13  04 49 39.240   +09 00 15.44  .06035 1.0286 137.1 25.7  213  71
2025 01 13 14  04 49 40.565   +09 00 18.44  .06069 1.0288 137.1 25.7  211  71
2025 01 13 15  04 49 41.885   +09 00 21.45  .06103 1.0291 137.1 25.7  209  71
2025 01 13 16  04 49 43.199   +09 00 24.49  .06137 1.0293 137.0 25.7  208  71
2025 01 13 17  04 49 44.508   +09 00 27.55  .06172 1.0295 137.0 25.7  206  70
2025 01 13 18  04 49 45.812   +09 00 30.62  .06206 1.0298 137.0 25.7  204  70
2025 01 13 19  04 49 47.111   +09 00 33.72  .06240 1.0300 136.9 25.7  203  70
2025 01 13 20  04 49 48.405   +09 00 36.84  .06274 1.0303 136.9 25.7  201  70
2025 01 13 21  04 49 49.694   +09 00 39.97  .06309 1.0305 136.9 25.8  199  70
2025 01 13 22  04 49 50.979   +09 00 43.13  .06343 1.0307 136.8 25.8  198  70
2025 01 13 23  04 49 52.259   +09 00 46.31  .06377 1.0310 136.8 25.8  196  70
2025 01 14 00  04 49 53.535   +09 00 49.50  .06411 1.0312 136.8 25.8  195  70
2025 01 14 01  04 49 54.806   +09 00 52.72  .06446 1.0314 136.7 25.8  193  69
2025 01 14 02  04 49 56.073   +09 00 55.95  .06480 1.0317 136.7 25.8  192  69
2025 01 14 03  04 49 57.337   +09 00 59.21  .06514 1.0319 136.7 25.8  190  69
2025 01 14 04  04 49 58.596   +09 01 02.48  .06548 1.0322 136.6 25.9  189  69
2025 01 14 05  04 49 59.851   +09 01 05.78  .06583 1.0324 136.6 25.9  187  69
2025 01 14 06  04 50 01.103   +09 01 09.09  .06617 1.0326 136.6 25.9  186  69
2025 01 14 07  04 50 02.350   +09 01 12.42  .06651 1.0329 136.5 25.9  184  69
2025 01 14 08  04 50 03.595   +09 01 15.77  .06686 1.0331 136.5 25.9  183  68
2025 01 14 09  04 50 04.836   +09 01 19.14  .06720 1.0333 136.5 25.9  181  68
2025 01 14 10  04 50 06.073   +09 01 22.53  .06754 1.0336 136.4 25.9  180  68
2025 01 14 11  04 50 07.308   +09 01 25.94  .06788 1.0338 136.4 25.9  179  68
2025 01 14 12  04 50 08.539   +09 01 29.37  .06823 1.0340 136.3 25.9  177  68
2025 01 14 13  04 50 09.767   +09 01 32.81  .06857 1.0343 136.3 26.0  176  68
2025 01 14 14  04 50 10.992   +09 01 36.28  .06891 1.0345 136.3 26.0  174  68
2025 01 14 15  04 50 12.214   +09 01 39.76  .06926 1.0347 136.2 26.0  173  67
2025 01 14 16  04 50 13.434   +09 01 43.27  .06960 1.0350 136.2 26.0  172  67
2025 01 14 17  04 50 14.650   +09 01 46.79  .06994 1.0352 136.2 26.0  170  67
2025 01 14 18  04 50 15.864   +09 01 50.33  .07029 1.0354 136.1 26.0  169  67
2025 01 14 19  04 50 17.076   +09 01 53.89  .07063 1.0357 136.1 26.0  168  67
2025 01 14 20  04 50 18.285   +09 01 57.46  .07097 1.0359 136.1 26.0  167  67
2025 01 14 21  04 50 19.491   +09 02 01.06  .07132 1.0361 136.0 26.1  165  66
2025 01 14 22  04 50 20.696   +09 02 04.67  .07166 1.0364 136.0 26.1  164  66
2025 01 14 23  04 50 21.898   +09 02 08.31  .07200 1.0366 136.0 26.1  163  66
2025 01 15 00  04 50 23.098   +09 02 11.96  .07234 1.0368 135.9 26.1  161  66
2025 01 15 01  04 50 24.295   +09 02 15.63  .07269 1.0370 135.9 26.1  160  66